Location: Coed Ely
(51.5661°N, 3.4150°W)
Time: 19:55:05
(UTC+00:00)

ATLAS 2AS CENTAUR R/B - Pass Details

Date: 28 January 2021
Orbit: 947 x 1265 km, 63.7° (Epoch: 13 February)

Event Time Altitude Azimuth Distance (km) Brightness Sun altitude
Rises 21:28:42 0° 312° (NW) 4,167 6.6 -41.5°
Reaches altitude 10° 21:31:35 10° 316° (NW) 3,166 5.7 -41.9°
Enters shadow 21:35:47 35° 328° (NNW) 1,825 4.1 -42.5°
